This is the latest recevied weather packets stored in our database for station/object IZ8QAD-10. If no packets are shown the sender has not sent any weather packets the latest 10 day(s).
| Time | Temp. | Humidity | Pressure | Rain* | Wind** | Luminosity | Snow |
|---|---|---|---|---|---|---|---|
| 1777945959 | 27.78° C | 28% | 969.9 hPa | - | - | - | - |
| 1777944159 | 27.78° C | 29% | 970.2 hPa | - | - | - | - |
| 1777942358 | 27.78° C | 29% | 970.6 hPa | - | - | - | - |
| 1777940558 | 27.78° C | 29% | 970.7 hPa | - | - | - | - |
| 1777938758 | 28.33° C | 29% | 970.7 hPa | - | - | - | - |
| 1777936958 | 28.33° C | 29% | 970.6 hPa | - | - | - | - |
| 1777935157 | 28.33° C | 29% | 970.8 hPa | - | - | - | - |
| 1777933356 | 28.33° C | 30% | 971.1 hPa | - | - | - | - |
| 1777931556 | 28.33° C | 30% | 971.3 hPa | - | - | - | - |
| 1777929756 | 28.89° C | 31% | 971.5 hPa | - | - | - | - |
| 1777927956 | 28.89° C | 30% | 971.4 hPa | - | - | - | - |
| 1777926156 | 28.89° C | 30% | 971.3 hPa | - | - | - | - |
| 1777924356 | 28.89° C | 31% | 971.3 hPa | - | - | - | - |
| 1777922555 | 28.89° C | 31% | 971.3 hPa | - | - | - | - |
| 1777920755 | 28.89° C | 30% | 971.1 hPa | - | - | - | - |
| 1777918955 | 28.89° C | 30% | 970.9 hPa | - | - | - | - |
| 1777917155 | 28.89° C | 30% | 970.6 hPa | - | - | - | - |
| 1777915355 | 28.89° C | 31% | 970.6 hPa | - | - | - | - |
| 1777913555 | 27.78° C | 30% | 970.5 hPa | - | - | - | - |
| 1777911754 | 28.33° C | 29% | 970.3 hPa | - | - | - | - |
| 1777909954 | 28.89° C | 31% | 970.6 hPa | - | - | - | - |
| 1777908154 | 28.33° C | 30% | 970.4 hPa | - | - | - | - |
| 1777906354 | 28.33° C | 32% | 970.5 hPa | - | - | - | - |
| 1777904554 | 28.33° C | 32% | 970.7 hPa | - | - | - | - |
| 1777902754 | 27.78° C | 32% | 970.9 hPa | - | - | - | - |
* Rain since midnight (hover to see other rain measurements)
** Current wind speed in m/s (hover to see current wind gust speed)